Year,Month,Day,Hour,Minute,Value (Times are PST for windgust in km/hr)
2018,05,04,00,55,1.60
2018,05,04,00,56,3.20
2018,05,04,00,57,3.20
2018,05,04,01,00,4.80
2018,05,04,01,01,3.20
2018,05,04,01,06,1.60
2018,05,04,01,07,3.20
2018,05,04,01,08,1.60
2018,05,04,01,09,4.80
2018,05,04,01,32,9.60
2018,05,04,01,33,9.60
2018,05,04,01,34,8.10
2018,05,04,01,35,3.20
2018,05,04,01,36,9.60
2018,05,04,01,37,4.80
2018,05,04,01,38,4.80
2018,05,04,01,39,1.60
2018,05,04,01,40,1.60
2018,05,04,01,41,3.20
2018,05,04,01,42,11.30
2018,05,04,01,43,12.90
2018,05,04,01,44,8.10
2018,05,04,01,45,4.80
2018,05,04,01,46,11.30
2018,05,04,01,47,6.40
2018,05,04,01,48,4.80
2018,05,04,01,50,1.60
2018,05,04,01,52,1.60
2018,05,04,01,53,1.60
2018,05,04,01,54,3.20
2018,05,04,01,55,4.80
2018,05,04,01,56,3.20
2018,05,04,01,58,4.80
2018,05,04,01,59,3.20
2018,05,04,02,00,3.20
2018,05,04,02,01,4.80
2018,05,04,02,02,4.80
2018,05,04,02,03,4.80
2018,05,04,02,04,6.40
2018,05,04,02,05,1.60
2018,05,04,02,08,3.20
2018,05,04,02,09,6.40
2018,05,04,02,11,3.20
2018,05,04,02,12,1.60
2018,05,04,02,15,6.40
2018,05,04,02,16,1.60
2018,05,04,02,17,1.60
2018,05,04,02,22,6.40
2018,05,04,02,23,4.80
2018,05,04,02,24,1.60
2018,05,04,02,25,4.80
2018,05,04,02,26,1.60
2018,05,04,02,27,3.20
2018,05,04,02,28,9.60
2018,05,04,02,29,1.60
2018,05,04,02,39,8.10
2018,05,04,02,40,16.10
2018,05,04,02,41,11.30
2018,05,04,02,42,1.60
2018,05,04,02,43,1.60
2018,05,04,02,44,3.20
2018,05,04,02,45,1.60
2018,05,04,02,46,1.60
2018,05,04,02,47,6.40
2018,05,04,02,48,1.60
2018,05,04,02,49,4.80
2018,05,04,02,50,4.80
2018,05,04,02,51,4.80
2018,05,04,02,52,6.40
2018,05,04,02,53,9.60
2018,05,04,02,54,9.60
2018,05,04,02,55,9.60
2018,05,04,02,56,1.60
2018,05,04,02,58,4.80
2018,05,04,02,59,4.80
2018,05,04,03,00,6.40
2018,05,04,03,01,6.40
2018,05,04,03,02,4.80
2018,05,04,03,03,9.60
2018,05,04,03,04,11.30
2018,05,04,03,05,9.60
2018,05,04,03,06,8.10
2018,05,04,03,07,1.60
2018,05,04,03,09,3.20
2018,05,04,03,10,3.20
2018,05,04,03,11,4.80
2018,05,04,03,12,1.60
2018,05,04,03,13,6.40
2018,05,04,03,14,6.40
2018,05,04,03,16,1.60
2018,05,04,03,17,6.40
2018,05,04,03,20,3.20
2018,05,04,03,21,9.60
2018,05,04,03,22,3.20
2018,05,04,03,23,4.80
2018,05,04,03,24,6.40
2018,05,04,03,25,6.40
2018,05,04,03,28,3.20
2018,05,04,03,29,6.40
2018,05,04,03,30,3.20
2018,05,04,03,37,1.60
2018,05,04,03,38,4.80
2018,05,04,03,39,3.20
2018,05,04,03,40,3.20
2018,05,04,03,41,3.20
2018,05,04,03,42,3.20
2018,05,04,03,43,1.60
2018,05,04,03,51,3.20
2018,05,04,03,52,6.40
2018,05,04,03,53,4.80
2018,05,04,03,59,4.80
2018,05,04,04,00,4.80
2018,05,04,04,01,1.60
2018,05,04,04,02,3.20
2018,05,04,04,03,1.60
2018,05,04,04,19,4.80
2018,05,04,04,20,4.80
2018,05,04,04,21,3.20
2018,05,04,04,22,3.20
2018,05,04,04,39,1.60
2018,05,04,04,47,4.80
2018,05,04,04,48,1.60
2018,05,04,04,50,1.60
2018,05,04,04,58,6.40
2018,05,04,04,59,3.20
2018,05,04,05,00,4.80
2018,05,04,05,01,3.20
2018,05,04,05,02,1.60
2018,05,04,05,10,6.40
2018,05,04,05,11,6.40
2018,05,04,05,18,1.60
2018,05,04,05,19,1.60
2018,05,04,05,24,3.20
2018,05,04,05,30,1.60
2018,05,04,05,31,3.20
2018,05,04,05,32,3.20
2018,05,04,05,35,3.20
2018,05,04,05,38,1.60
2018,05,04,05,44,6.40
2018,05,04,05,45,3.20
2018,05,04,05,47,4.80
2018,05,04,05,48,6.40
2018,05,04,05,49,6.40
2018,05,04,05,50,1.60
2018,05,04,05,54,4.80
2018,05,04,05,55,4.80
2018,05,04,05,56,4.80
2018,05,04,05,57,4.80
2018,05,04,05,58,1.60
2018,05,04,05,59,3.20
2018,05,04,06,03,3.20
2018,05,04,06,04,3.20
2018,05,04,06,05,1.60
2018,05,04,06,44,1.60
2018,05,04,08,48,1.60
2018,05,04,09,25,1.60
2018,05,04,09,26,3.20
2018,05,04,09,27,3.20
2018,05,04,09,28,4.80
2018,05,04,09,29,3.20
2018,05,04,09,36,1.60
2018,05,04,09,37,4.80
2018,05,04,09,38,4.80
2018,05,04,09,39,8.10
2018,05,04,09,40,6.40
2018,05,04,09,42,6.40
2018,05,04,09,43,8.10
2018,05,04,09,44,4.80
2018,05,04,09,45,4.80
2018,05,04,09,46,4.80
2018,05,04,09,47,3.20
2018,05,04,09,48,4.80
2018,05,04,09,49,3.20
2018,05,04,09,51,1.60
2018,05,04,09,56,1.60
2018,05,04,09,57,4.80
2018,05,04,09,58,4.80
2018,05,04,10,01,3.20
2018,05,04,10,02,3.20
2018,05,04,10,03,8.10
2018,05,04,10,04,4.80
2018,05,04,10,05,4.80
2018,05,04,10,06,6.40
2018,05,04,10,07,4.80
2018,05,04,10,08,3.20
2018,05,04,10,09,6.40
2018,05,04,10,10,4.80
2018,05,04,10,11,6.40
2018,05,04,10,12,6.40
2018,05,04,10,13,6.40
2018,05,04,10,14,4.80
2018,05,04,10,15,3.20
2018,05,04,10,16,4.80
2018,05,04,10,17,6.40
2018,05,04,10,18,6.40
2018,05,04,10,19,6.40
2018,05,04,10,20,4.80
2018,05,04,10,21,4.80
2018,05,04,10,22,1.60
2018,05,04,10,25,3.20
2018,05,04,10,26,4.80
2018,05,04,10,27,8.10
2018,05,04,10,28,4.80
2018,05,04,10,29,6.40
2018,05,04,10,30,6.40
2018,05,04,10,31,4.80
2018,05,04,10,32,4.80
2018,05,04,10,35,8.10
2018,05,04,10,36,9.60
2018,05,04,10,37,6.40
2018,05,04,10,38,4.80
2018,05,04,10,39,6.40
2018,05,04,10,40,8.10
2018,05,04,10,41,8.10
2018,05,04,10,42,8.10
2018,05,04,10,43,6.40
2018,05,04,10,44,8.10
2018,05,04,10,45,3.20
2018,05,04,10,46,6.40
2018,05,04,10,47,8.10
2018,05,04,10,48,8.10
2018,05,04,10,49,12.90
2018,05,04,10,50,8.10
2018,05,04,10,51,6.40
2018,05,04,10,52,6.40
2018,05,04,10,53,9.60
2018,05,04,10,54,9.60
2018,05,04,10,55,14.50
2018,05,04,10,56,6.40
2018,05,04,10,57,6.40
2018,05,04,10,58,6.40
2018,05,04,10,59,4.80
2018,05,04,11,00,1.60
2018,05,04,11,01,1.60
2018,05,04,11,02,9.60
2018,05,04,11,03,12.90
2018,05,04,11,04,14.50
2018,05,04,11,05,8.10
2018,05,04,11,06,4.80
2018,05,04,11,07,11.30
2018,05,04,11,08,8.10
2018,05,04,11,09,8.10
2018,05,04,11,10,9.60
2018,05,04,11,11,11.30
2018,05,04,11,12,12.90
2018,05,04,11,13,3.20
2018,05,04,11,14,9.60
2018,05,04,11,15,8.10
2018,05,04,11,16,9.60
2018,05,04,11,17,4.80
2018,05,04,11,18,11.30
2018,05,04,11,19,16.10
2018,05,04,11,20,14.50
2018,05,04,11,21,14.50
2018,05,04,11,22,12.90
2018,05,04,11,23,16.10
2018,05,04,11,24,8.10
2018,05,04,11,25,11.30
2018,05,04,11,26,9.60
2018,05,04,11,27,3.20
2018,05,04,11,28,12.90
2018,05,04,11,29,11.30
2018,05,04,11,30,9.60
2018,05,04,11,31,11.30
2018,05,04,11,32,12.90
2018,05,04,11,33,8.10
2018,05,04,11,34,8.10
2018,05,04,11,35,8.10
2018,05,04,11,36,12.90
2018,05,04,11,37,8.10
2018,05,04,11,38,9.60
2018,05,04,11,39,11.30
2018,05,04,11,40,14.50
2018,05,04,11,41,8.10
2018,05,04,11,42,14.50
2018,05,04,11,43,11.30
2018,05,04,11,44,9.60
2018,05,04,11,45,4.80
2018,05,04,11,46,8.10
2018,05,04,11,47,6.40
2018,05,04,11,48,11.30
2018,05,04,11,49,9.60
2018,05,04,11,50,11.30
2018,05,04,11,51,6.40
2018,05,04,11,52,16.10
2018,05,04,11,53,8.10
2018,05,04,11,54,4.80
2018,05,04,11,55,8.10
2018,05,04,11,56,12.90
2018,05,04,11,57,11.30
2018,05,04,11,58,11.30
2018,05,04,11,59,16.10
2018,05,04,12,00,12.90
2018,05,04,12,01,6.40
2018,05,04,12,02,9.60
2018,05,04,12,03,14.50
2018,05,04,12,04,12.90
2018,05,04,12,05,9.60
2018,05,04,12,06,11.30
2018,05,04,12,07,8.10
2018,05,04,12,08,9.60
2018,05,04,12,09,11.30
2018,05,04,12,10,9.60
2018,05,04,12,11,14.50
2018,05,04,12,12,12.90
2018,05,04,12,13,12.90
2018,05,04,12,14,12.90
2018,05,04,12,15,12.90
2018,05,04,12,16,12.90
2018,05,04,12,17,9.60
2018,05,04,12,18,8.10
2018,05,04,12,19,9.60
2018,05,04,12,20,8.10
2018,05,04,12,21,11.30
2018,05,04,12,22,11.30
2018,05,04,12,23,11.30
2018,05,04,12,24,16.10
2018,05,04,12,25,11.30
2018,05,04,12,26,11.30
2018,05,04,12,27,12.90
2018,05,04,12,28,12.90
2018,05,04,12,29,11.30
2018,05,04,12,30,12.90
2018,05,04,12,31,14.50
2018,05,04,12,32,12.90
2018,05,04,12,33,14.50
2018,05,04,12,34,14.50
2018,05,04,12,35,14.50
2018,05,04,12,36,11.30
2018,05,04,12,37,9.60
2018,05,04,12,38,9.60
2018,05,04,12,39,16.10
2018,05,04,12,40,14.50
2018,05,04,12,41,9.60
2018,05,04,12,42,12.90
2018,05,04,12,43,9.60
2018,05,04,12,44,14.50
2018,05,04,12,45,12.90
2018,05,04,12,46,16.10
2018,05,04,12,47,16.10
2018,05,04,12,48,9.60
2018,05,04,12,49,11.30
2018,05,04,12,50,6.40
2018,05,04,12,51,9.60
2018,05,04,12,52,14.50
2018,05,04,12,53,9.60
2018,05,04,12,54,17.70
2018,05,04,12,55,12.90
2018,05,04,12,56,16.10
2018,05,04,12,57,6.40
2018,05,04,12,58,16.10
2018,05,04,12,59,12.90
2018,05,04,13,00,17.70
2018,05,04,13,01,14.50
2018,05,04,13,02,16.10
2018,05,04,13,03,12.90
2018,05,04,13,04,14.50
2018,05,04,13,05,14.50
2018,05,04,13,06,14.50
2018,05,04,13,07,16.10
2018,05,04,13,08,9.60
2018,05,04,13,09,14.50
2018,05,04,13,10,12.90
2018,05,04,13,11,16.10
2018,05,04,13,12,8.10
2018,05,04,13,13,6.40
2018,05,04,13,14,11.30
2018,05,04,13,15,9.60
2018,05,04,13,16,12.90
2018,05,04,13,17,16.10
2018,05,04,13,18,17.70
2018,05,04,13,19,9.60
2018,05,04,13,20,19.30
2018,05,04,13,21,3.20
2018,05,04,13,22,12.90
2018,05,04,13,23,12.90
2018,05,04,13,24,14.50
2018,05,04,13,25,8.10
2018,05,04,13,26,6.40
2018,05,04,13,27,11.30
2018,05,04,13,28,12.90
2018,05,04,13,29,12.90
2018,05,04,13,30,11.30
2018,05,04,13,31,14.50
2018,05,04,13,32,14.50
2018,05,04,13,33,16.10
2018,05,04,13,34,12.90
2018,05,04,13,35,8.10
2018,05,04,13,36,14.50
2018,05,04,13,37,11.30
2018,05,04,13,38,12.90
2018,05,04,13,39,6.40
2018,05,04,13,40,14.50
2018,05,04,13,41,11.30
2018,05,04,13,42,16.10
2018,05,04,13,43,9.60
2018,05,04,13,44,16.10
2018,05,04,13,45,12.90
2018,05,04,13,46,17.70
2018,05,04,13,47,14.50
2018,05,04,13,48,12.90
2018,05,04,13,49,19.30
2018,05,04,13,50,12.90
2018,05,04,13,51,16.10
2018,05,04,13,52,11.30
2018,05,04,13,53,14.50
2018,05,04,13,54,16.10
2018,05,04,13,55,8.10
2018,05,04,13,56,9.60
2018,05,04,13,57,14.50
2018,05,04,13,58,12.90
2018,05,04,13,59,11.30
2018,05,04,14,00,14.50
2018,05,04,14,01,12.90
2018,05,04,14,02,17.70
2018,05,04,14,03,16.10
2018,05,04,14,04,19.30
2018,05,04,14,05,14.50
2018,05,04,14,06,8.10
2018,05,04,14,07,12.90
2018,05,04,14,08,8.10
2018,05,04,14,09,6.40
2018,05,04,14,10,12.90
2018,05,04,14,11,14.50
2018,05,04,14,12,17.70
2018,05,04,14,13,14.50
2018,05,04,14,14,14.50
2018,05,04,14,15,16.10
2018,05,04,14,16,12.90
2018,05,04,14,17,14.50
2018,05,04,14,18,14.50
2018,05,04,14,19,14.50
2018,05,04,14,20,16.10
2018,05,04,14,21,19.30
2018,05,04,14,22,8.10
2018,05,04,14,23,12.90
2018,05,04,14,24,11.30
2018,05,04,14,25,8.10
2018,05,04,14,26,9.60
2018,05,04,14,27,19.30
2018,05,04,14,28,19.30
2018,05,04,14,29,14.50
2018,05,04,14,30,12.90
2018,05,04,14,31,12.90
2018,05,04,14,32,14.50
2018,05,04,14,33,14.50
2018,05,04,14,34,11.30
2018,05,04,14,35,14.50
2018,05,04,14,36,12.90
2018,05,04,14,37,11.30
2018,05,04,14,38,12.90
2018,05,04,14,39,9.60
2018,05,04,14,40,17.70
2018,05,04,14,41,9.60
2018,05,04,14,42,8.10
2018,05,04,14,43,16.10
2018,05,04,14,44,14.50
2018,05,04,14,45,16.10
2018,05,04,14,46,14.50
2018,05,04,14,47,12.90
2018,05,04,14,48,11.30
2018,05,04,14,49,14.50
2018,05,04,14,50,20.90
2018,05,04,14,51,19.30
2018,05,04,14,52,11.30
2018,05,04,14,53,14.50
2018,05,04,14,54,12.90
2018,05,04,14,55,14.50
2018,05,04,14,56,11.30
2018,05,04,14,57,19.30
2018,05,04,14,58,19.30
2018,05,04,14,59,14.50
2018,05,04,15,00,12.90
2018,05,04,15,01,16.10
2018,05,04,15,02,22.50
2018,05,04,15,03,9.60
2018,05,04,15,04,11.30
2018,05,04,15,05,14.50
2018,05,04,15,06,11.30
2018,05,04,15,07,14.50
2018,05,04,15,08,14.50
2018,05,04,15,09,12.90
2018,05,04,15,10,14.50
2018,05,04,15,11,8.10
2018,05,04,15,12,20.90
2018,05,04,15,13,19.30
2018,05,04,15,14,16.10
2018,05,04,15,15,16.10
2018,05,04,15,16,6.40
2018,05,04,15,17,14.50
2018,05,04,15,18,11.30
2018,05,04,15,19,11.30
2018,05,04,15,20,19.30
2018,05,04,15,21,12.90
2018,05,04,15,22,16.10
2018,05,04,15,23,9.60
2018,05,04,15,24,11.30
2018,05,04,15,25,11.30
2018,05,04,15,26,14.50
2018,05,04,15,27,14.50
2018,05,04,15,28,11.30
2018,05,04,15,29,19.30
2018,05,04,15,30,14.50
2018,05,04,15,31,9.60
2018,05,04,15,32,12.90
2018,05,04,15,33,16.10
2018,05,04,15,34,12.90
2018,05,04,15,35,12.90
2018,05,04,15,36,14.50
2018,05,04,15,37,16.10
2018,05,04,15,38,14.50
2018,05,04,15,39,14.50
2018,05,04,15,40,8.10
2018,05,04,15,41,14.50
2018,05,04,15,42,11.30
2018,05,04,15,43,12.90
2018,05,04,15,44,12.90
2018,05,04,15,45,12.90
2018,05,04,15,46,12.90
2018,05,04,15,47,16.10
2018,05,04,15,48,14.50
2018,05,04,15,49,16.10
2018,05,04,15,50,17.70
2018,05,04,15,51,12.90
2018,05,04,15,52,16.10
2018,05,04,15,53,14.50
2018,05,04,15,54,14.50
2018,05,04,15,55,12.90
2018,05,04,15,56,17.70
2018,05,04,15,57,17.70
2018,05,04,15,58,20.90
2018,05,04,15,59,14.50
2018,05,04,16,00,16.10
2018,05,04,16,01,17.70
2018,05,04,16,02,9.60
2018,05,04,16,03,17.70
2018,05,04,16,04,17.70
2018,05,04,16,05,16.10
2018,05,04,16,06,16.10
2018,05,04,16,07,17.70
2018,05,04,16,08,14.50
2018,05,04,16,09,20.90
2018,05,04,16,10,11.30
2018,05,04,16,11,20.90
2018,05,04,16,12,16.10
2018,05,04,16,13,16.10
2018,05,04,16,14,20.90
2018,05,04,16,15,14.50
2018,05,04,16,16,12.90
2018,05,04,16,17,12.90
2018,05,04,16,18,17.70
2018,05,04,16,19,11.30
2018,05,04,16,20,11.30
2018,05,04,16,21,17.70
2018,05,04,16,22,16.10
2018,05,04,16,23,11.30
2018,05,04,16,24,12.90
2018,05,04,16,25,9.60
2018,05,04,16,26,19.30
2018,05,04,16,27,14.50
2018,05,04,16,28,11.30
2018,05,04,16,29,17.70
2018,05,04,16,30,16.10
2018,05,04,16,31,16.10
2018,05,04,16,32,16.10
2018,05,04,16,33,14.50
2018,05,04,16,34,11.30
2018,05,04,16,35,8.10
2018,05,04,16,36,11.30
2018,05,04,16,37,16.10
2018,05,04,16,38,14.50
2018,05,04,16,39,14.50
2018,05,04,16,40,12.90
2018,05,04,16,41,11.30
2018,05,04,16,42,12.90
2018,05,04,16,43,11.30
2018,05,04,16,44,16.10
2018,05,04,16,45,14.50
2018,05,04,16,46,14.50
2018,05,04,16,47,12.90
2018,05,04,16,48,8.10
2018,05,04,16,49,9.60
2018,05,04,16,50,4.80
2018,05,04,16,51,12.90
2018,05,04,16,52,9.60
2018,05,04,16,53,19.30
2018,05,04,16,54,14.50
2018,05,04,16,55,8.10
2018,05,04,16,56,11.30
2018,05,04,16,57,9.60
2018,05,04,16,58,6.40
2018,05,04,16,59,16.10
2018,05,04,17,00,11.30
2018,05,04,17,01,6.40
2018,05,04,17,02,16.10
2018,05,04,17,03,9.60
2018,05,04,17,04,16.10
2018,05,04,17,05,11.30
2018,05,04,17,06,9.60
2018,05,04,17,07,14.50
2018,05,04,17,08,14.50
2018,05,04,17,09,9.60
2018,05,04,17,10,6.40
2018,05,04,17,11,6.40
2018,05,04,17,12,8.10
2018,05,04,17,13,8.10
2018,05,04,17,14,11.30
2018,05,04,17,15,3.20
2018,05,04,17,16,6.40
2018,05,04,17,17,9.60
2018,05,04,17,18,4.80
2018,05,04,17,19,11.30
2018,05,04,17,20,12.90
2018,05,04,17,21,3.20
2018,05,04,17,22,4.80
2018,05,04,17,23,6.40
2018,05,04,17,24,12.90
2018,05,04,17,25,14.50
2018,05,04,17,26,11.30
2018,05,04,17,27,17.70
2018,05,04,17,28,11.30
2018,05,04,17,29,11.30
2018,05,04,17,30,4.80
2018,05,04,17,31,12.90
2018,05,04,17,32,9.60
2018,05,04,17,33,6.40
2018,05,04,17,34,6.40
2018,05,04,17,35,8.10
2018,05,04,17,36,6.40
2018,05,04,17,37,6.40
2018,05,04,17,38,6.40
2018,05,04,17,39,3.20
2018,05,04,17,40,4.80
2018,05,04,17,41,11.30
2018,05,04,17,42,12.90
2018,05,04,17,43,8.10
2018,05,04,17,44,4.80
2018,05,04,17,45,9.60
2018,05,04,17,46,11.30
2018,05,04,17,47,11.30
2018,05,04,17,48,9.60
2018,05,04,17,49,12.90
2018,05,04,17,50,11.30
2018,05,04,17,51,8.10
2018,05,04,17,52,8.10
2018,05,04,17,53,11.30
2018,05,04,17,54,6.40
2018,05,04,17,55,1.60
2018,05,04,17,56,6.40
2018,05,04,17,57,9.60
2018,05,04,17,58,8.10
2018,05,04,17,59,6.40
2018,05,04,18,00,11.30
2018,05,04,18,01,8.10
2018,05,04,18,02,6.40
2018,05,04,18,03,6.40
2018,05,04,18,04,8.10
2018,05,04,18,05,6.40
2018,05,04,18,06,4.80
2018,05,04,18,07,6.40
2018,05,04,18,08,11.30
2018,05,04,18,09,9.60
2018,05,04,18,10,8.10
2018,05,04,18,11,14.50
2018,05,04,18,12,12.90
2018,05,04,18,13,9.60
2018,05,04,18,14,11.30
2018,05,04,18,15,14.50
2018,05,04,18,16,14.50
2018,05,04,18,17,9.60
2018,05,04,18,18,9.60
2018,05,04,18,19,4.80
2018,05,04,18,20,11.30
2018,05,04,18,21,11.30
2018,05,04,18,22,4.80
2018,05,04,18,23,8.10
2018,05,04,18,24,3.20
2018,05,04,18,25,6.40
2018,05,04,18,26,6.40
2018,05,04,18,27,9.60
2018,05,04,18,28,9.60
2018,05,04,18,29,8.10
2018,05,04,18,30,4.80
2018,05,04,18,31,6.40
2018,05,04,18,32,11.30
2018,05,04,18,33,6.40
2018,05,04,18,34,8.10
2018,05,04,18,35,11.30
2018,05,04,18,36,8.10
2018,05,04,18,37,11.30
2018,05,04,18,38,9.60
2018,05,04,18,39,4.80
2018,05,04,18,40,9.60
2018,05,04,18,41,11.30
2018,05,04,18,42,6.40
2018,05,04,18,43,8.10
2018,05,04,18,44,6.40
2018,05,04,18,45,8.10
2018,05,04,18,46,4.80
2018,05,04,18,47,6.40
2018,05,04,18,48,6.40
2018,05,04,18,49,9.60
2018,05,04,18,50,6.40
2018,05,04,18,51,6.40
2018,05,04,18,52,6.40
2018,05,04,18,53,6.40
2018,05,04,18,54,8.10
2018,05,04,18,55,6.40
2018,05,04,18,56,8.10
2018,05,04,18,57,8.10
2018,05,04,18,58,8.10
2018,05,04,18,59,8.10
2018,05,04,19,00,8.10
2018,05,04,19,01,6.40
2018,05,04,19,02,4.80
2018,05,04,19,03,4.80
2018,05,04,19,04,8.10
2018,05,04,19,05,4.80
2018,05,04,19,06,6.40
2018,05,04,19,07,6.40
2018,05,04,19,08,6.40
2018,05,04,19,09,8.10
2018,05,04,19,10,6.40
2018,05,04,19,11,4.80
2018,05,04,19,12,3.20
2018,05,04,19,13,8.10
2018,05,04,19,14,6.40
2018,05,04,19,15,6.40
2018,05,04,19,16,4.80
2018,05,04,19,17,3.20
2018,05,04,19,18,3.20
2018,05,04,19,19,4.80
2018,05,04,19,20,3.20
2018,05,04,19,21,1.60
2018,05,04,20,28,1.60
2018,05,04,20,30,1.60
2018,05,04,20,31,6.40
2018,05,04,20,32,6.40
2018,05,04,20,33,4.80
2018,05,04,20,34,3.20
2018,05,04,20,35,1.60
2018,05,04,20,36,1.60
2018,05,04,20,37,3.20
2018,05,04,20,38,3.20
2018,05,04,22,22,3.20
2018,05,04,22,23,3.20
2018,05,04,22,24,3.20
2018,05,04,22,25,3.20
2018,05,04,22,26,1.60
